FW7566 Weather Reports


time (UTC)temp
F
wind
direction
speed
knots
gust
knots
rain 1hr
in
rain 24hr
in
rain mn
in
humidity
%
barometer
mb
20260504033504 45 199 0.0 0.0 0.00 0.00 0.00 68 1012.7
20260504033001 44 199 0.0 0.0 0.00 0.00 0.00 69 1012.7
20260504032457 44 199 0.0 0.0 0.00 0.00 0.00 69 1012.7
20260504031954 45 199 0.0 0.0 0.00 0.00 0.00 68 1012.7
20260504031451 44 199 0.0 0.0 0.00 0.00 0.00 68 1012.7
20260504030948 44 199 0.0 0.0 0.00 0.00 0.00 67 1012.6
20260504030445 44 199 0.0 0.0 0.00 0.00 0.00 67 1012.6
20260504025940 45 199 0.0 0.0 0.00 0.00 0.00 66 1012.4
20260504025437 45 199 0.0 0.0 0.00 0.00 0.00 65 1012.6
20260504024935 45 199 0.0 0.0 0.00 0.00 0.00 64 1012.8
20260504024432 45 199 0.0 0.0 0.00 0.00 0.00 65 1012.8
20260504023929 45 199 0.0 0.0 0.00 0.00 0.00 66 1012.7
20260504023425 46 199 0.0 0.0 0.00 0.00 0.00 64 1012.7
20260504022921 46 199 0.0 0.0 0.00 0.00 0.00 62 1012.7
20260504022417 46 199 0.0 0.0 0.00 0.00 0.00 62 1012.8
20260504021914 46 199 0.0 0.0 0.00 0.00 0.00 62 1012.8
20260504021412 46 199 0.0 0.0 0.00 0.00 0.00 61 1012.6
20260504020909 46 199 0.0 0.0 0.00 0.00 0.00 62 1012.8
20260504020405 47 199 0.0 0.0 0.00 0.00 0.00 60 1012.6
20260504015901 47 199 0.0 0.0 0.00 0.00 0.00 59 1012.7
20260504015357 48 199 0.0 0.0 0.00 0.00 0.00 58 1012.6
20260504014854 48 199 0.0 0.0 0.00 0.00 0.00 56 1012.6
20260504014350 47 199 0.0 0.0 0.00 0.00 0.00 57 1012.5
20260504013847 48 199 0.0 0.0 0.00 0.00 0.00 56 1012.4
20260504013345 48 199 0.0 0.0 0.00 0.00 0.00 56 1012.3
20260504012841 48 199 0.0 0.0 0.00 0.00 0.00 55 1012.5
20260504012339 49 199 0.0 0.0 0.00 0.00 0.00 55 1012.3
20260504011837 50 199 0.0 0.0 0.00 0.00 0.00 52 1012.3
20260504011333 50 199 0.0 0.0 0.00 0.00 0.00 53 1012.4
20260504010829 50 199 0.0 0.0 0.00 0.00 0.00 53 1012.3
20260504010325 50 199 0.0 0.0 0.00 0.00 0.00 51 1012.2
20260504005822 51 199 0.0 0.0 0.00 0.00 0.00 49 1011.9
20260504005319 51 199 0.0 0.0 0.00 0.00 0.00 47 1012.2
20260504004816 51 199 0.0 0.0 0.00 0.00 0.00 47 1012.2
20260504004314 52 199 0.0 0.0 0.00 0.00 0.00 44 1012.0
20260504003810 53 199 0.0 0.0 0.00 0.00 0.00 42 1011.9
20260504003307 54 199 0.0 0.0 0.00 0.00 0.00 42 1011.8
20260504002803 55 199 0.0 0.0 0.00 0.00 0.00 40 1011.7
20260504002300 55 200 0.0 0.0 0.00 0.00 0.00 39 1011.7
20260504001757 56 197 0.0 0.0 0.00 0.00 0.00 38 1011.8
20260504001254 56 188 0.0 0.9 0.00 0.00 0.00 38 1011.5
20260504000751 56 337 0.9 0.9 0.00 0.00 0.00 38 1011.5
20260504000248 56 353 0.0 0.9 0.00 0.00 0.00 37 1011.4
20260503235746 56 210 0.0 0.0 0.00 0.00 0.00 38 1011.2
20260503235243 57 352 0.0 0.0 0.00 0.00 0.00 37 1011.5
20260503234741 57 305 0.9 1.7 0.00 0.00 0.00 36 1011.2
20260503234239 57 65 0.0 0.0 0.00 0.00 0.00 36 1011.2
20260503233736 57 307 0.0 0.0 0.00 0.00 0.00 36 1011.1
20260503233231 57 14 0.9 0.9 0.00 0.00 0.00 36 1011.0
20260503232723 58 336 0.0 0.0 0.00 0.00 0.00 35 1011.0
20260503232220 58 302 3.5 5.2 0.00 0.00 0.00 34 1011.0
20260503231718 58 330 0.9 0.9 0.00 0.00 0.00 34 1010.9
20260503231215 58 109 0.0 0.9 0.00 0.00 0.00 36 1010.9
20260503230711 59 109 0.0 0.0 0.00 0.00 0.00 34 1011.0
20260503230208 59 307 0.9 1.7 0.00 0.00 0.00 34 1010.8
20260503225705 59 16 0.0 0.9 0.00 0.00 0.00 34 1010.9
20260503225200 59 292 2.6 7.0 0.00 0.00 0.00 33 1010.8
20260503224657 59 326 3.5 4.3 0.00 0.00 0.00 32 1010.5
20260503224155 60 261 2.6 5.2 0.00 0.00 0.00 32 1010.7
20260503223653 60 345 0.9 1.7 0.00 0.00 0.00 33 1010.5
20260503223149 60 331 3.5 5.2 0.00 0.00 0.00 32 1010.5
20260503222646 60 331 4.3 5.2 0.00 0.00 0.00 32 1010.6
20260503222144 60 318 4.3 6.1 0.00 0.00 0.00 31 1010.8
20260503221642 60 16 4.3 7.0 0.00 0.00 0.00 32 1010.7
20260503221139 60 357 3.5 4.3 0.00 0.00 0.00 31 1010.6
20260503220636 60 357 0.9 0.9 0.00 0.00 0.00 32 1010.5
20260503220133 59 46 0.9 0.9 0.00 0.00 0.00 32 1010.6
20260503215630 60 28 0.9 0.9 0.00 0.00 0.00 31 1010.7
20260503215126 60 320 5.2 5.2 0.00 0.00 0.00 30 1010.7
20260503214625 60 323 0.9 1.7 0.00 0.00 0.00 31 1010.6
20260503214121 60 71 2.6 2.6 0.00 0.00 0.00 30 1010.7
20260503213620 60 327 3.5 6.1 0.00 0.00 0.00 31 1010.6
20260503213116 60 64 0.9 0.9 0.00 0.00 0.00 31 1010.5
20260503212614 60 7 3.5 5.2 0.00 0.00 0.00 30 1010.4
20260503212111 60 288 4.3 6.1 0.00 0.00 0.00 30 1010.7
20260503211609 60 352 7.0 8.7 0.00 0.00 0.00 30 1010.4
20260503211103 60 55 4.3 7.0 0.00 0.00 0.00 30 1010.8
20260503210600 60 346 0.9 1.7 0.00 0.00 0.00 31 1010.7
20260503210056 61 349 4.3 6.1 0.00 0.00 0.00 29 1010.6
20260503205553 61 21 0.9 1.7 0.00 0.00 0.00 29 1010.6
20260503205049 61 357 0.9 1.7 0.00 0.00 0.00 30 1010.5
20260503204546 62 333 2.6 2.6 0.00 0.00 0.00 30 1010.6
20260503204043 61 324 1.7 2.6 0.00 0.00 0.00 31 1010.5
20260503203541 59 11 2.6 5.2 0.00 0.00 0.00 32 1010.7
20260503203037 60 308 1.7 1.7 0.00 0.00 0.00 31 1010.6
20260503202536 59 5 1.7 2.6 0.00 0.00 0.00 33 1010.8
20260503202033 59 43 2.6 2.6 0.00 0.00 0.00 32 1010.9
20260503201532 59 352 1.7 2.6 0.00 0.00 0.00 33 1010.9
20260503201028 60 279 3.5 4.3 0.00 0.00 0.00 32 1011.0
20260503200524 59 17 4.3 6.1 0.00 0.00 0.00 32 1011.0
20260503200015 60 298 3.5 4.3 0.00 0.00 0.00 32 1011.2
20260503195512 60 312 1.7 1.7 0.00 0.00 0.00 33 1011.0
20260503195009 58 125 0.9 0.9 0.00 0.00 0.00 34 1011.1
20260503194506 59 67 2.6 2.6 0.00 0.00 0.00 32 1011.1
20260503194006 58 21 4.3 5.2 0.00 0.00 0.00 32 1011.1
20260503193502 57 62 0.9 1.7 0.00 0.00 0.00 36 1011.2
20260503192958 58 355 2.6 4.3 0.00 0.00 0.00 33 1011.4
20260503192455 57 303 4.3 6.1 0.00 0.00 0.00 33 1011.3
20260503191950 58 3 2.6 6.1 0.00 0.00 0.00 33 1011.5
20260503191448 59 278 1.7 1.7 0.00 0.00 0.00 34 1011.3
20260503190944 60 95 0.9 1.7 0.00 0.00 0.00 33 1011.3
20260503190442 59 357 1.7 2.6 0.00 0.00 0.00 33 1011.5
20260503185939 59 320 6.1 9.6 0.00 0.00 0.00 33 1011.5
20260503185435 57 319 4.3 9.6 0.00 0.00 0.00 35 1011.4
20260503184934 57 192 2.6 2.6 0.00 0.00 0.00 36 1011.4
20260503184431 58 56 3.5 4.3 0.00 0.00 0.00 36 1011.6
20260503183927 57 317 4.3 6.1 0.00 0.00 0.00 35 1011.7
20260503183424 56 175 2.6 2.6 0.00 0.00 0.00 36 1011.5
20260503182921 56 6 4.3 6.1 0.00 0.00 0.00 35 1011.8
20260503182420 57 59 0.9 0.9 0.00 0.00 0.00 37 1011.7
20260503181917 57 322 3.5 5.2 0.00 0.00 0.00 36 1011.6
20260503181413 57 213 1.7 2.6 0.00 0.00 0.00 37 1011.7
20260503180910 56 275 0.9 1.7 0.00 0.00 0.00 37 1011.5
20260503180408 57 255 2.6 4.3 0.00 0.00 0.00 37 1011.7
20260503175904 58 17 2.6 4.3 0.00 0.00 0.00 36 1011.5
20260503175403 57 156 0.9 1.7 0.00 0.00 0.00 41 1011.8
20260503174858 56 291 4.3 6.1 0.00 0.00 0.00 37 1011.8
20260503174356 55 303 1.7 2.6 0.00 0.00 0.00 39 1012.1
20260503173851 55 264 2.6 2.6 0.00 0.00 0.00 40 1012.0
20260503173347 56 19 2.6 4.3 0.00 0.00 0.00 40 1012.1
20260503172844 55 260 4.3 5.2 0.00 0.00 0.00 38 1012.2
20260503172342 55 338 6.1 9.6 0.00 0.00 0.00 40 1012.2
20260503171838 55 298 3.5 4.3 0.00 0.00 0.00 40 1012.2
20260503171335 53 221 2.6 4.3 0.00 0.00 0.00 42 1012.2
20260503170832 54 249 2.6 4.3 0.00 0.00 0.00 41 1012.5
20260503170329 54 237 2.6 4.3 0.00 0.00 0.00 42 1012.4
20260503150720 51 308 4.3 6.1 0.00 0.00 0.00 44 1012.7
20260503150217 51 47 1.7 2.6 0.00 0.00 0.00 46 1012.9
20260503140141 52 36 1.7 2.6 0.00 0.00 0.00 46 1012.7
20260503131111 50 37 2.6 4.3 0.00 0.00 0.00 52 1012.8
20260503130609 49 60 1.7 1.7 0.00 0.00 0.00 55 1012.7
20260503130106 49 44 1.7 1.7 0.00 0.00 0.00 55 1012.7
20260503110459 43 71 0.0 0.9 0.00 0.00 0.00 63 1012.1
20260503090344 44 31 1.7 2.6 0.00 0.00 0.00 59 1011.2
20260503081312 45 83 2.6 4.3 0.00 0.00 0.00 56 1011.1
20260503080808 45 42 0.9 0.9 0.00 0.00 0.00 57 1010.9
20260503080305 45 38 0.9 0.9 0.00 0.00 0.00 57 1010.9
20260503072742 46 57 0.9 0.9 0.00 0.00 0.00 56 1011.0
20260503072238 46 338 0.9 1.7 0.00 0.00 0.00 56 1011.1
20260503071735 46 109 0.9 0.9 0.00 0.00 0.00 56 1011.0
20260503071231 46 313 1.7 4.3 0.00 0.00 0.00 56 1010.8
20260503070728 46 300 0.0 0.9 0.00 0.00 0.00 56 1011.0
20260503070226 46 4 0.0 0.0 0.00 0.00 0.00 55 1011.0
20260503060151 48 343 0.9 0.9 0.00 0.00 0.00 53 1011.2
20260503054638 48 38 0.0 0.0 0.00 0.00 0.00 53 1011.0
20260503054135 48 7 0.9 0.9 0.00 0.00 0.00 51 1011.1
20260503053633 48 50 0.9 0.9 0.00 0.00 0.00 52 1011.2
20260503053132 48 62 0.0 0.9 0.00 0.00 0.00 51 1011.3
20260503052627 48 334 0.0 0.9 0.00 0.00 0.00 51 1011.1
20260503052124 49 90 0.0 0.0 0.00 0.00 0.00 51 1011.3
20260503051619 49 342 1.7 2.6 0.00 0.00 0.00 50 1011.4
20260503051118 49 60 0.0 0.9 0.00 0.00 0.00 50 1011.6
20260503050614 49 60 0.9 1.7 0.00 0.00 0.00 49 1011.4
20260503050110 49 320 0.0 0.0 0.00 0.00 0.00 51 1011.6
20260503045608 49 107 1.7 1.7 0.00 0.00 0.00 50 1011.6
20260503045105 49 277 0.9 0.9 0.00 0.00 0.00 50 1011.4
20260503044601 49 32 0.9 0.9 0.00 0.00 0.00 49 1011.6
20260503044059 49 51 0.9 0.9 0.00 0.00 0.00 50 1011.6
20260503043555 49 352 0.0 0.9 0.00 0.00 0.00 50 1011.8
20260503043052 49 67 0.9 0.9 0.00 0.00 0.00 49 1011.7
20260503042549 49 91 0.0 0.9 0.00 0.00 0.00 49 1011.8
20260503042045 50 39 0.9 0.9 0.00 0.00 0.00 49 1011.8
20260503041542 50 75 0.0 0.9 0.00 0.00 0.00 49 1011.6
20260503041040 50 326 0.9 1.7 0.00 0.00 0.00 49 1011.7
20260503040537 50 300 0.0 0.9 0.00 0.00 0.00 49 1011.5
20260503040034 50 15 1.7 1.7 0.00 0.01 0.01 48 1011.8
20260503035531 50 344 0.9 1.7 0.00 0.01 0.01 48 1011.6
20260503035028 50 11 0.0 0.9 0.00 0.01 0.01 48 1011.5
20260503034525 50 16 1.7 1.7 0.00 0.01 0.01 47 1011.8
20260503034022 50 98 0.9 1.7 0.00 0.01 0.01 47 1011.6